| time (UTC) | temp F | wind direction | speed knots | gust knots | rain 1hr in | rain 24hr in | rain mn in | humidity % | barometer mb |
| 20260504231925 | 66 | 245 | 0.0 | 0.0 | 0.00 | 0.00 | 0.00 | 41 | 1003.8 |
| 20260504231421 | 65 | 245 | 0.0 | 0.0 | 0.00 | 0.00 | 0.00 | 44 | 1003.6 |
| 20260504230917 | 66 | 255 | 0.0 | 0.0 | 0.00 | 0.00 | 0.00 | 43 | 1003.6 |
| 20260504230415 | 67 | 236 | 0.0 | 0.0 | 0.00 | 0.00 | 0.00 | 43 | 1003.5 |
| 20260504225913 | 67 | 250 | 0.0 | 0.0 | 0.00 | 0.00 | 0.00 | 40 | 1003.4 |
| 20260504225410 | 67 | 263 | 0.9 | 0.9 | 0.00 | 0.00 | 0.00 | 39 | 1003.4 |
| 20260504224907 | 68 | 245 | 0.0 | 0.0 | 0.00 | 0.00 | 0.00 | 43 | 1003.1 |
| 20260504224403 | 69 | 236 | 0.0 | 0.0 | 0.00 | 0.00 | 0.00 | 38 | 1003.1 |
| 20260504223901 | 68 | 248 | 0.0 | 0.0 | 0.00 | 0.00 | 0.00 | 39 | 1003.1 |
| 20260504223356 | 68 | 246 | 1.7 | 1.7 | 0.00 | 0.00 | 0.00 | 38 | 1003.0 |
| 20260504222852 | 68 | 251 | 0.0 | 0.9 | 0.00 | 0.00 | 0.00 | 38 | 1003.2 |
| 20260504222349 | 68 | 264 | 1.7 | 1.7 | 0.00 | 0.00 | 0.00 | 38 | 1003.3 |
| 20260504221848 | 68 | 227 | 0.9 | 0.9 | 0.00 | 0.00 | 0.00 | 38 | 1003.4 |
| 20260504221344 | 68 | 231 | 0.9 | 0.9 | 0.00 | 0.00 | 0.00 | 38 | 1003.2 |
| 20260504220842 | 68 | 236 | 0.9 | 0.9 | 0.00 | 0.00 | 0.00 | 38 | 1003.1 |
| 20260504220338 | 69 | 254 | 0.9 | 1.7 | 0.00 | 0.00 | 0.00 | 37 | 1003.2 |
| 20260504215835 | 69 | 240 | 0.9 | 0.9 | 0.00 | 0.00 | 0.00 | 38 | 1003.2 |
| 20260504215331 | 69 | 228 | 1.7 | 1.7 | 0.00 | 0.00 | 0.00 | 38 | 1003.1 |
| 20260504214828 | 69 | 269 | 0.9 | 1.7 | 0.00 | 0.00 | 0.00 | 37 | 1003.3 |
| 20260504214325 | 69 | 269 | 2.6 | 5.2 | 0.00 | 0.00 | 0.00 | 36 | 1003.1 |
| 20260504213821 | 70 | 196 | 1.7 | 1.7 | 0.00 | 0.00 | 0.00 | 36 | 1003.3 |
| 20260504213317 | 70 | 269 | 2.6 | 2.6 | 0.00 | 0.00 | 0.00 | 36 | 1003.2 |
| 20260504212815 | 70 | 253 | 2.6 | 2.6 | 0.00 | 0.00 | 0.00 | 37 | 1003.1 |
| 20260504212311 | 69 | 223 | 3.5 | 4.3 | 0.00 | 0.00 | 0.00 | 38 | 1003.2 |
| 20260504211809 | 69 | 253 | 0.0 | 0.0 | 0.00 | 0.00 | 0.00 | 39 | 1003.3 |
| 20260504211304 | 70 | 292 | 0.9 | 0.9 | 0.00 | 0.00 | 0.00 | 38 | 1003.1 |
| 20260504210802 | 69 | 251 | 2.6 | 4.3 | 0.00 | 0.00 | 0.00 | 37 | 1003.1 |
| 20260504210259 | 68 | 279 | 0.0 | 0.9 | 0.00 | 0.00 | 0.00 | 42 | 1003.2 |
| 20260504205756 | 68 | 256 | 0.0 | 0.9 | 0.00 | 0.00 | 0.00 | 41 | 1003.0 |
| 20260504205254 | 67 | 246 | 0.9 | 0.9 | 0.00 | 0.00 | 0.00 | 41 | 1003.0 |
| 20260504204752 | 67 | 258 | 1.7 | 1.7 | 0.00 | 0.00 | 0.00 | 43 | 1003.0 |
| 20260504204250 | 68 | 304 | 2.6 | 2.6 | 0.00 | 0.00 | 0.00 | 40 | 1003.0 |
| 20260504203749 | 68 | 280 | 0.9 | 1.7 | 0.00 | 0.00 | 0.00 | 39 | 1003.1 |
| 20260504203246 | 68 | 251 | 0.9 | 1.7 | 0.00 | 0.00 | 0.00 | 40 | 1003.0 |
| 20260504202741 | 68 | 232 | 2.6 | 2.6 | 0.00 | 0.00 | 0.00 | 40 | 1003.2 |
| 20260504202239 | 69 | 245 | 1.7 | 1.7 | 0.00 | 0.00 | 0.00 | 40 | 1002.9 |
| 20260504201736 | 68 | 229 | 2.6 | 2.6 | 0.00 | 0.00 | 0.00 | 40 | 1003.1 |
| 20260504201233 | 68 | 235 | 5.2 | 7.0 | 0.00 | 0.00 | 0.00 | 40 | 1003.1 |
| 20260504200731 | 68 | 279 | 4.3 | 6.1 | 0.00 | 0.00 | 0.00 | 40 | 1003.3 |
| 20260504200226 | 68 | 290 | 3.5 | 5.2 | 0.00 | 0.00 | 0.00 | 41 | 1003.2 |
| 20260504195723 | 67 | 263 | 4.3 | 6.1 | 0.00 | 0.00 | 0.00 | 41 | 1003.4 |
| 20260504195219 | 68 | 285 | 2.6 | 4.3 | 0.00 | 0.00 | 0.00 | 42 | 1003.4 |
| 20260504194716 | 67 | 231 | 3.5 | 4.3 | 0.00 | 0.00 | 0.00 | 42 | 1003.5 |
| 20260504194212 | 66 | 269 | 2.6 | 2.6 | 0.00 | 0.00 | 0.00 | 44 | 1003.7 |
| 20260504193708 | 66 | 252 | 4.3 | 7.0 | 0.00 | 0.00 | 0.00 | 43 | 1003.4 |
| 20260504193206 | 66 | 219 | 1.7 | 1.7 | 0.00 | 0.00 | 0.00 | 45 | 1003.5 |
| 20260504192704 | 66 | 297 | 1.7 | 1.7 | 0.00 | 0.00 | 0.00 | 45 | 1003.6 |
| 20260504192202 | 66 | 243 | 1.7 | 1.7 | 0.00 | 0.00 | 0.00 | 45 | 1003.7 |
| 20260504191701 | 66 | 185 | 1.7 | 2.6 | 0.00 | 0.00 | 0.00 | 45 | 1003.6 |
| 20260504191156 | 66 | 250 | 0.9 | 0.9 | 0.00 | 0.00 | 0.00 | 46 | 1003.6 |
| 20260504190652 | 64 | 250 | 0.9 | 0.9 | 0.00 | 0.00 | 0.00 | 48 | 1003.7 |
| 20260504190149 | 64 | 280 | 1.7 | 1.7 | 0.00 | 0.00 | 0.00 | 48 | 1003.6 |
| 20260504185645 | 64 | 307 | 2.6 | 4.3 | 0.00 | 0.00 | 0.00 | 47 | 1003.9 |
| 20260504185142 | 64 | 262 | 1.7 | 1.7 | 0.00 | 0.00 | 0.00 | 48 | 1003.7 |
| 20260504184638 | 63 | 270 | 4.3 | 5.2 | 0.00 | 0.00 | 0.00 | 49 | 1004.0 |
| 20260504184132 | 64 | 276 | 2.6 | 2.6 | 0.00 | 0.00 | 0.00 | 48 | 1004.2 |
| 20260504183630 | 64 | 274 | 4.3 | 6.1 | 0.00 | 0.00 | 0.00 | 50 | 1004.0 |
| 20260504183127 | 62 | 265 | 1.7 | 1.7 | 0.00 | 0.00 | 0.00 | 51 | 1003.9 |
| 20260504182625 | 62 | 296 | 0.9 | 0.9 | 0.00 | 0.00 | 0.00 | 51 | 1004.1 |
| 20260504182122 | 62 | 251 | 0.9 | 0.9 | 0.00 | 0.00 | 0.00 | 52 | 1004.3 |
| 20260504181620 | 61 | 292 | 1.7 | 1.7 | 0.00 | 0.00 | 0.00 | 52 | 1004.3 |
| 20260504181117 | 61 | 271 | 0.0 | 0.9 | 0.00 | 0.00 | 0.00 | 52 | 1004.6 |
| 20260504180616 | 61 | 288 | 1.7 | 2.6 | 0.00 | 0.00 | 0.00 | 52 | 1004.5 |
| 20260504180115 | 61 | 281 | 2.6 | 2.6 | 0.00 | 0.00 | 0.00 | 52 | 1004.3 |
| 20260504175611 | 61 | 248 | 0.9 | 0.9 | 0.00 | 0.00 | 0.00 | 52 | 1004.5 |
| 20260504175108 | 61 | 265 | 1.7 | 1.7 | 0.00 | 0.00 | 0.00 | 51 | 1004.3 |
| 20260504174606 | 61 | 253 | 0.0 | 0.0 | 0.00 | 0.00 | 0.00 | 51 | 1004.3 |
| 20260504174102 | 62 | 304 | 0.9 | 1.7 | 0.00 | 0.00 | 0.00 | 50 | 1004.5 |
| 20260504173559 | 62 | 292 | 0.9 | 1.7 | 0.00 | 0.00 | 0.00 | 49 | 1004.3 |
| 20260504173057 | 62 | 225 | 2.6 | 2.6 | 0.00 | 0.00 | 0.00 | 49 | 1004.5 |
| 20260504172553 | 61 | 267 | 1.7 | 2.6 | 0.00 | 0.00 | 0.00 | 48 | 1004.5 |
| 20260504172050 | 61 | 213 | 1.7 | 2.6 | 0.00 | 0.00 | 0.00 | 48 | 1004.5 |
| 20260504171546 | 61 | 330 | 3.5 | 5.2 | 0.00 | 0.00 | 0.00 | 47 | 1004.6 |
| 20260504171043 | 61 | 291 | 0.0 | 0.9 | 0.00 | 0.00 | 0.00 | 47 | 1004.2 |
| 20260504170539 | 61 | 253 | 2.6 | 5.2 | 0.00 | 0.00 | 0.00 | 46 | 1004.1 |
| 20260504150923 | 60 | 238 | 1.7 | 1.7 | 0.00 | 0.00 | 0.00 | 51 | 1004.0 |
| 20260504150420 | 59 | 233 | 2.6 | 4.3 | 0.00 | 0.00 | 0.00 | 51 | 1004.6 |
| 20260504140846 | 56 | 196 | 2.6 | 2.6 | 0.00 | 0.00 | 0.00 | 59 | 1005.3 |
| 20260504140342 | 55 | 228 | 2.6 | 4.3 | 0.00 | 0.00 | 0.00 | 60 | 1005.4 |
| 20260504130811 | 53 | 247 | 0.0 | 0.9 | 0.00 | 0.00 | 0.00 | 65 | 1005.9 |
| 20260504130307 | 52 | 196 | 1.7 | 1.7 | 0.00 | 0.00 | 0.00 | 64 | 1005.9 |
| 20260504120231 | 49 | 228 | 2.6 | 2.6 | 0.00 | 0.00 | 0.00 | 66 | 1006.6 |
| 20260504110658 | 36 | 247 | 1.7 | 1.7 | 0.00 | 0.00 | 0.00 | 91 | 1006.6 |
| 20260504110154 | 35 | 247 | 0.0 | 0.0 | 0.00 | 0.00 | 0.00 | 93 | 1006.6 |
| 20260504100119 | 32 | 330 | 1.7 | 1.7 | 0.00 | 0.00 | 0.00 | 93 | 1006.7 |
| 20260504081512 | 29 | 270 | 0.0 | 0.0 | 0.00 | 0.00 | 0.00 | 95 | 1006.7 |
| 20260504081007 | 29 | 270 | 0.0 | 0.0 | 0.00 | 0.00 | 0.00 | 95 | 1006.7 |
| 20260504080504 | 29 | 270 | 0.0 | 0.0 | 0.00 | 0.00 | 0.00 | 95 | 1006.7 |
| 20260504050317 | 30 | 246 | 0.0 | 0.0 | 0.00 | 0.00 | 0.00 | 94 | 1006.1 |
| 20260504045814 | 30 | 245 | 0.0 | 0.0 | 0.00 | 0.00 | 0.00 | 94 | 1006.4 |
| 20260504045314 | 30 | 250 | 0.0 | 0.0 | 0.00 | 0.00 | 0.00 | 93 | 1006.2 |
| 20260504044811 | 30 | 250 | 0.0 | 0.0 | 0.00 | 0.00 | 0.00 | 93 | 1006.3 |
| 20260504044309 | 30 | 249 | 0.0 | 0.0 | 0.00 | 0.00 | 0.00 | 93 | 1006.3 |
| 20260504043806 | 30 | 266 | 0.0 | 0.0 | 0.00 | 0.00 | 0.00 | 92 | 1006.2 |
| 20260504043303 | 30 | 254 | 0.0 | 0.0 | 0.00 | 0.00 | 0.00 | 92 | 1006.3 |
| 20260504042801 | 31 | 264 | 0.0 | 0.0 | 0.00 | 0.00 | 0.00 | 92 | 1006.3 |
| 20260504042257 | 31 | 260 | 0.0 | 0.0 | 0.00 | 0.00 | 0.00 | 92 | 1006.3 |
| 20260504041753 | 31 | 251 | 0.0 | 0.0 | 0.00 | 0.00 | 0.00 | 92 | 1006.4 |
| 20260504041249 | 31 | 260 | 0.0 | 0.0 | 0.00 | 0.00 | 0.00 | 92 | 1006.2 |
| 20260504040745 | 31 | 260 | 0.0 | 0.0 | 0.00 | 0.00 | 0.00 | 92 | 1006.0 |
| 20260504040243 | 31 | 260 | 0.0 | 0.0 | 0.00 | 0.00 | 0.00 | 91 | 1006.2 |
| 20260504035739 | 32 | 250 | 0.0 | 0.0 | 0.00 | 0.01 | 0.01 | 91 | 1006.1 |
| 20260504035236 | 32 | 264 | 0.0 | 0.0 | 0.00 | 0.01 | 0.01 | 91 | 1006.1 |
| 20260504034734 | 32 | 239 | 0.0 | 0.0 | 0.00 | 0.01 | 0.01 | 91 | 1006.1 |
| 20260504034231 | 32 | 250 | 0.0 | 0.0 | 0.00 | 0.01 | 0.01 | 91 | 1005.9 |
| 20260504033728 | 33 | 249 | 0.0 | 0.0 | 0.00 | 0.01 | 0.01 | 90 | 1006.0 |
| 20260504033226 | 33 | 243 | 0.0 | 0.0 | 0.00 | 0.01 | 0.01 | 90 | 1006.0 |
| 20260504032723 | 33 | 250 | 0.0 | 0.0 | 0.00 | 0.01 | 0.01 | 90 | 1005.8 |
| 20260504032220 | 33 | 250 | 0.0 | 0.0 | 0.00 | 0.01 | 0.01 | 90 | 1006.0 |
| 20260504031716 | 34 | 250 | 0.0 | 0.0 | 0.00 | 0.01 | 0.01 | 89 | 1006.1 |
| 20260504031214 | 34 | 247 | 0.0 | 0.0 | 0.00 | 0.01 | 0.01 | 89 | 1006.2 |
| 20260504030710 | 34 | 247 | 0.0 | 0.0 | 0.00 | 0.01 | 0.01 | 88 | 1005.9 |
| 20260504030207 | 34 | 235 | 0.0 | 0.0 | 0.00 | 0.01 | 0.01 | 88 | 1005.9 |
| 20260504025703 | 35 | 262 | 0.0 | 0.0 | 0.00 | 0.01 | 0.01 | 87 | 1006.0 |
| 20260504025200 | 35 | 250 | 0.0 | 0.0 | 0.00 | 0.01 | 0.01 | 87 | 1006.0 |
| 20260504024658 | 35 | 254 | 0.0 | 0.0 | 0.00 | 0.01 | 0.01 | 87 | 1006.0 |
| 20260504024153 | 35 | 253 | 0.0 | 0.0 | 0.00 | 0.01 | 0.01 | 87 | 1005.9 |
| 20260504023650 | 36 | 254 | 0.0 | 0.0 | 0.00 | 0.01 | 0.01 | 85 | 1005.9 |
| 20260504023147 | 36 | 260 | 0.0 | 0.0 | 0.00 | 0.01 | 0.01 | 84 | 1006.3 |
| 20260504022643 | 36 | 248 | 0.0 | 0.0 | 0.00 | 0.01 | 0.01 | 84 | 1006.3 |
| 20260504022138 | 37 | 248 | 0.0 | 0.0 | 0.00 | 0.01 | 0.01 | 83 | 1005.9 |
| 20260504021637 | 37 | 247 | 0.0 | 0.0 | 0.00 | 0.01 | 0.01 | 83 | 1006.0 |
| 20260504021133 | 37 | 247 | 0.0 | 0.0 | 0.00 | 0.01 | 0.01 | 81 | 1006.0 |
| 20260504020630 | 38 | 246 | 0.0 | 0.0 | 0.00 | 0.01 | 0.01 | 79 | 1006.0 |
| 20260504020126 | 38 | 263 | 0.0 | 0.0 | 0.00 | 0.01 | 0.01 | 79 | 1005.7 |
| 20260504015623 | 38 | 250 | 0.0 | 0.0 | 0.00 | 0.01 | 0.01 | 80 | 1006.0 |
| 20260504015120 | 39 | 247 | 0.0 | 0.0 | 0.00 | 0.01 | 0.01 | 79 | 1006.0 |
| 20260504014615 | 39 | 249 | 0.0 | 0.0 | 0.00 | 0.01 | 0.01 | 79 | 1005.9 |
| 20260504014113 | 40 | 249 | 0.0 | 0.0 | 0.00 | 0.01 | 0.01 | 79 | 1006.0 |
| 20260504013610 | 40 | 262 | 0.0 | 0.0 | 0.00 | 0.01 | 0.01 | 77 | 1006.0 |
| 20260504013107 | 40 | 250 | 0.0 | 0.0 | 0.00 | 0.01 | 0.01 | 76 | 1005.8 |
| 20260504012604 | 40 | 259 | 0.0 | 0.0 | 0.00 | 0.01 | 0.01 | 72 | 1006.1 |
| 20260504012102 | 40 | 245 | 0.0 | 0.0 | 0.00 | 0.01 | 0.01 | 72 | 1005.9 |
| 20260504011559 | 41 | 253 | 0.0 | 0.0 | 0.00 | 0.01 | 0.01 | 74 | 1005.6 |
| 20260504011055 | 41 | 254 | 0.0 | 0.0 | 0.00 | 0.01 | 0.01 | 72 | 1005.9 |
| 20260504010550 | 42 | 254 | 0.0 | 0.0 | 0.00 | 0.01 | 0.01 | 71 | 1005.6 |
| 20260504010047 | 42 | 254 | 0.0 | 0.0 | 0.00 | 0.01 | 0.01 | 67 | 1005.8 |
| 20260504005544 | 42 | 255 | 0.0 | 0.0 | 0.00 | 0.01 | 0.01 | 65 | 1005.5 |
| 20260504005041 | 43 | 244 | 0.0 | 0.0 | 0.00 | 0.01 | 0.01 | 67 | 1005.5 |
| 20260504004539 | 44 | 254 | 0.0 | 0.0 | 0.00 | 0.01 | 0.01 | 64 | 1005.3 |
| 20260504004036 | 45 | 259 | 0.0 | 0.0 | 0.00 | 0.01 | 0.01 | 59 | 1005.2 |
| 20260504003532 | 45 | 264 | 0.0 | 0.0 | 0.00 | 0.01 | 0.01 | 56 | 1005.3 |
| 20260504003029 | 45 | 261 | 0.0 | 0.0 | 0.00 | 0.01 | 0.01 | 56 | 1005.2 |
| 20260504002526 | 46 | 267 | 0.0 | 0.0 | 0.00 | 0.01 | 0.01 | 55 | 1005.1 |
| 20260504002023 | 46 | 263 | 0.0 | 0.9 | 0.00 | 0.01 | 0.01 | 54 | 1005.4 |
| 20260504001521 | 46 | 259 | 0.0 | 0.0 | 0.00 | 0.01 | 0.01 | 54 | 1004.8 |
| 20260504001017 | 46 | 290 | 0.9 | 0.9 | 0.00 | 0.01 | 0.01 | 53 | 1004.9 |
| 20260504000514 | 46 | 245 | 0.0 | 0.0 | 0.00 | 0.01 | 0.01 | 55 | 1005.1 |
| 20260504000011 | 46 | 296 | 2.6 | 4.3 | 0.00 | 0.01 | 0.01 | 53 | 1004.9 |
| 20260503235509 | 46 | 286 | 0.9 | 1.7 | 0.00 | 0.01 | 0.01 | 53 | 1004.8 |
| 20260503235006 | 47 | 263 | 0.0 | 0.0 | 0.00 | 0.01 | 0.01 | 54 | 1004.9 |
| 20260503234503 | 47 | 263 | 0.0 | 0.9 | 0.00 | 0.01 | 0.01 | 53 | 1004.6 |
| 20260503234002 | 47 | 282 | 0.9 | 0.9 | 0.00 | 0.01 | 0.01 | 52 | 1004.8 |
| 20260503233457 | 47 | 245 | 2.6 | 4.3 | 0.00 | 0.01 | 0.01 | 54 | 1004.6 |
| 20260503232954 | 48 | 285 | 0.9 | 0.9 | 0.00 | 0.01 | 0.01 | 52 | 1004.3 |
| 20260503232451 | 48 | 302 | 3.5 | 5.2 | 0.00 | 0.01 | 0.01 | 51 | 1004.5 |